Lid_Strength_Index
11 12 14 15 15 14 15 17 16 14 14 16 16 15 14 12 13 13 13 13 12 11 10 9 9 9 9 10 10 9 10 10 10 11 12 11 12 11 11 10 9 9 8 8
11 14 13 12 13 15 15 17 17 15 14 16 16 16 14 13 13 14 13 13 12 12 11 10 10 10 10 10 10 9 9 10 10 10 11 11 11 11 10 10 9 9 8 8
14 14 12 13 15 16 16 17 18 18 16 15 17 18 15 14 13 12 12 12 11 11 11 11 10 10 10 10 10 9 9 9 10 10 10 11 11 11 11 10 10 9 8 9
14 13 13 15 16 15 17 15 16 17 19 22 17 24 16 16 14 13 12 13 12 12 10 10 10 10 10 9 9 9 9 9 9 10 11 12 12 13 11 10 10 9 9 9
14 14 15 15 15 14 16 14 17 17 21 21 20 23 17 16 15 14 13 12 12 11 11 10 10 9 9 9 9 9 9 9 9 10 11 12 12 11 10 10 10 10 10 9
14 12 13 14 13 14 14 16 17 19 21 25 24 22 19 17 16 14 12 12 12 12 12 11 11 10 10 10 10 9 9 9 9 11 11 12 12 11 11 11 11 11 11 11
15 15 13 12 16 14 16 19 22 22 24 22 26 23 19 15 14 13 13 13 12 12 12 12 12 11 11 11 11 10 10 10 11 12 12 11 11 11 11 11 11 12 12 12
17 18 16 13 15 17 16 19 22 26 24 23 25 24 17 15 14 13 13 12 12 13 12 12 11 11 12 12 11 11 11 11 12 12 12 11 11 11 11 11 11 12 12 12
17 17 14 13 13 15 17 22 18 23 27 26 20 17 14 15 17 14 14 13 13 12 12 11 11 11 11 12 12 12 12 13 13 12 11 11 11 11 12 11 11 12 10 10
15 19 16 14 13 15 17 16 21 22 27 27 21 22 19 19 20 18 15 16 14 13 12 12 11 11 11 12 12 12 13 13 13 12 11 11 12 12 11 11 12 11 10 10
14 17 18 15 18 18 19 20 20 20 19 24 25 20 16 18 19 19 17 14 16 16 13 13 12 11 12 12 12 13 14 13 12 11 11 12 12 11 12 12 11 10 10 9
13 14 20 17 14 13 15 17 16 21 23 21 21 22 15 17 17 19 18 15 15 15 13 13 13 12 13 13 12 14 14 13 12 12 12 12 12 12 12 12 11 10 10 9
13 18 22 18 17 16 18 15 14 18 17 22 23 20 17 18 19 18 17 14 13 14 14 14 15 14 14 13 14 15 14 13 12 13 13 13 14 13 13 12 11 10 10 9
11 15 19 19 18 17 19 17 15 18 23 20 18 17 16 16 17 15 14 14 14 15 14 16 17 17 16 16 17 17 15 14 14 13 14 15 14 13 13 12 11 11 10 10
13 18 16 15 15 16 16 17 16 18 17 20 16 17 14 12 14 14 13 16 15 14 17 17 17 17 18 18 19 18 19 18 17 16 18 17 15 13 13 13 12 11 11 10
12 17 19 22 15 14 16 14 15 15 16 17 16 16 11 10 11 11 12 15 15 14 16 15 16 17 16 16 17 19 20 20 19 20 19 19 14 14 14 13 12 12 11 11
14 17 21 19 17 20 21 18 15 15 15 15 18 14 11 13 15 15 14 16 14 14 14 15 14 15 16 16 18 19 21 22 21 21 20 17 13 17 16 13 13 12 12 12
14 15 15 18 21 22 17 14 14 14 13 13 13 12 12 15 15 15 16 16 15 14 14 14 15 17 18 20 21 22 23 24 22 22 20 15 13 13 14 13 13 13 12 12
11 13 16 18 19 17 16 15 16 16 16 12 13 12 11 14 14 13 12 12 12 13 13 13 15 18 19 19 22 23 25 24 22 21 20 17 13 13 14 14 14 13 13 14
13 12 15 17 20 22 17 15 14 12 18 12 11 12 11 13 17 14 11 11 11 11 12 12 12 13 14 15 17 20 22 22 19 19 18 19 15 13 14 14 14 14 14 15
20 17 17 16 17 17 13 14 13 19 17 12 12 12 12 13 11 11 11 12 12 12 12 12 12 13 14 14 15 16 18 19 16 15 16 17 17 14 13 14 14 14 15 17
16 16 17 17 18 19 12 14 14 11 11 13 13 13 12 11 11 12 12 12 11 12 12 12 13 13 13 14 15 16 17 16 15 15 15 15 15 14 14 18 18 18 16 17
16 13 14 14 14 10 9 10 9 9 10 11 12 12 12 12 12 12 12 12 12 12 11 13 13 13 14 15 15 16 16 16 17 17 18 17 16 15 14 16 16 17 17 18
12 11 13 12 11 8 8 8 8 9 10 9 9 10 10 11 11 11 13 13 13 13 13 16 17 15 15 16 16 16 18 18 18 18 19 18 18 17 17 15 15 17 18 18
12 11 12 12 9 8 8 8 7 8 8 8 8 10 9 9 11 11 12 13 13 13 13 16 15 15 15 17 16 17 18 18 18 18 18 17 17 17 17 16 17 16 16 15
12 13 14 14 10 9 9 8 7 7 6 7 8 8 9 9 10 10 11 11 12 13 14 15 14 15 14 17 16 17 18 18 18 17 18 17 17 17 17 17 15 12 13 12